﻿測定場所 (Monitoring sites),日付 (Measurement date),時間 (Measurement time),線量率 最大値 (max) μGy/h,線量率 最小値 (min) μGy/h,線量率 平均値 (average) μGy/h,
江戸川 (Edogawa),2018-09-23,23:01～24:00,0.0506,0.0442,0.0474,
江戸川 (Edogawa),2018-09-23,22:01～23:00,0.0509,0.0436,0.0468,
江戸川 (Edogawa),2018-09-23,21:01～22:00,0.0510,0.0432,0.0471,
江戸川 (Edogawa),2018-09-23,20:01～21:00,0.0499,0.0436,0.0469,
江戸川 (Edogawa),2018-09-23,19:01～20:00,0.0506,0.0431,0.0471,
江戸川 (Edogawa),2018-09-23,18:01～19:00,0.0498,0.0445,0.0469,
江戸川 (Edogawa),2018-09-23,17:01～18:00,0.0514,0.0442,0.0468,
江戸川 (Edogawa),2018-09-23,16:01～17:00,0.0507,0.0434,0.0471,
江戸川 (Edogawa),2018-09-23,15:01～16:00,0.0503,0.0435,0.0467,
江戸川 (Edogawa),2018-09-23,14:01～15:00,0.0499,0.0431,0.0469,
江戸川 (Edogawa),2018-09-23,13:01～14:00,0.0502,0.0436,0.0468,
江戸川 (Edogawa),2018-09-23,12:01～13:00,0.0503,0.0439,0.0468,
江戸川 (Edogawa),2018-09-23,11:01～12:00,0.0500,0.0445,0.0466,
江戸川 (Edogawa),2018-09-23,10:01～11:00,0.0501,0.0433,0.0465,
江戸川 (Edogawa),2018-09-23,09:01～10:00,0.0505,0.0431,0.0466,
江戸川 (Edogawa),2018-09-23,08:01～09:00,0.0496,0.0431,0.0466,
江戸川 (Edogawa),2018-09-23,07:01～08:00,0.0492,0.0433,0.0465,
江戸川 (Edogawa),2018-09-23,06:01～07:00,0.0515,0.0438,0.0470,
江戸川 (Edogawa),2018-09-23,05:01～06:00,0.0514,0.0446,0.0473,
江戸川 (Edogawa),2018-09-23,04:01～05:00,0.0500,0.0443,0.0470,
江戸川 (Edogawa),2018-09-23,03:01～04:00,0.0498,0.0437,0.0472,
江戸川 (Edogawa),2018-09-23,02:01～03:00,0.0515,0.0429,0.0474,
江戸川 (Edogawa),2018-09-23,01:01～02:00,0.0493,0.0445,0.0469,
江戸川 (Edogawa),2018-09-23,00:01～01:00,0.0508,0.0440,0.0472,
江戸川 (Edogawa),2018-09-22,23:01～24:00,0.0510,0.0447,0.0473,
江戸川 (Edogawa),2018-09-22,22:01～23:00,0.0497,0.0442,0.0471,
江戸川 (Edogawa),2018-09-22,21:01～22:00,0.0504,0.0431,0.0469,
江戸川 (Edogawa),2018-09-22,20:01～21:00,0.0492,0.0431,0.0469,
江戸川 (Edogawa),2018-09-22,19:01～20:00,0.0502,0.0439,0.0466,
江戸川 (Edogawa),2018-09-22,18:01～19:00,0.0498,0.0444,0.0466,
江戸川 (Edogawa),2018-09-22,17:01～18:00,0.0500,0.0439,0.0468,
江戸川 (Edogawa),2018-09-22,16:01～17:00,0.0494,0.0431,0.0469,
江戸川 (Edogawa),2018-09-22,15:01～16:00,0.0508,0.0438,0.0470,
江戸川 (Edogawa),2018-09-22,14:01～15:00,0.0498,0.0431,0.0467,
江戸川 (Edogawa),2018-09-22,13:01～14:00,0.0507,0.0428,0.0473,
江戸川 (Edogawa),2018-09-22,12:01～13:00,0.0515,0.0449,0.0483,
江戸川 (Edogawa),2018-09-22,11:01～12:00,0.0539,0.0460,0.0513,
江戸川 (Edogawa),2018-09-22,10:01～11:00,0.0527,0.0445,0.0483,
江戸川 (Edogawa),2018-09-22,09:01～10:00,0.0502,0.0444,0.0470,
江戸川 (Edogawa),2018-09-22,08:01～09:00,0.0500,0.0434,0.0467,
江戸川 (Edogawa),2018-09-22,07:01～08:00,0.0495,0.0431,0.0463,
江戸川 (Edogawa),2018-09-22,06:01～07:00,0.0508,0.0424,0.0469,
江戸川 (Edogawa),2018-09-22,05:01～06:00,0.0489,0.0439,0.0464,
江戸川 (Edogawa),2018-09-22,04:01～05:00,0.0502,0.0421,0.0461,
江戸川 (Edogawa),2018-09-22,03:01～04:00,0.0492,0.0433,0.0464,
江戸川 (Edogawa),2018-09-22,02:01～03:00,0.0505,0.0437,0.0467,
江戸川 (Edogawa),2018-09-22,01:01～02:00,0.0488,0.0437,0.0462,
江戸川 (Edogawa),2018-09-22,00:01～01:00,0.0495,0.0433,0.0464,
江戸川 (Edogawa),2018-09-21,23:01～24:00,0.0491,0.0434,0.0465,
江戸川 (Edogawa),2018-09-21,22:01～23:00,0.0501,0.0444,0.0471,
江戸川 (Edogawa),2018-09-21,21:01～22:00,0.0520,0.0462,0.0490,
江戸川 (Edogawa),2018-09-21,20:01～21:00,0.0554,0.0477,0.0513,
江戸川 (Edogawa),2018-09-21,19:01～20:00,0.0590,0.0505,0.0553,
江戸川 (Edogawa),2018-09-21,18:01～19:00,0.0601,0.0487,0.0531,
江戸川 (Edogawa),2018-09-21,17:01～18:00,0.0569,0.0476,0.0522,
江戸川 (Edogawa),2018-09-21,16:01～17:00,0.0565,0.0492,0.0529,
江戸川 (Edogawa),2018-09-21,15:01～16:00,0.0549,0.0488,0.0514,
江戸川 (Edogawa),2018-09-21,14:01～15:00,0.0569,0.0501,0.0538,
江戸川 (Edogawa),2018-09-21,13:01～14:00,0.0578,0.0493,0.0528,
江戸川 (Edogawa),2018-09-21,12:01～13:00,0.0608,0.0510,0.0555,
江戸川 (Edogawa),2018-09-21,11:01～12:00,0.0633,0.0556,0.0591,
江戸川 (Edogawa),2018-09-21,10:01～11:00,0.0673,0.0580,0.0617,
江戸川 (Edogawa),2018-09-21,09:01～10:00,0.0663,0.0496,0.0580,
江戸川 (Edogawa),2018-09-21,08:01～09:00,0.0562,0.0475,0.0519,
江戸川 (Edogawa),2018-09-21,07:01～08:00,0.0569,0.0500,0.0532,
江戸川 (Edogawa),2018-09-21,06:01～07:00,0.0614,0.0524,0.0568,
江戸川 (Edogawa),2018-09-21,05:01～06:00,0.0643,0.0559,0.0605,
江戸川 (Edogawa),2018-09-21,04:01～05:00,0.0686,0.0565,0.0624,
江戸川 (Edogawa),2018-09-21,03:01～04:00,0.0626,0.0543,0.0585,
江戸川 (Edogawa),2018-09-21,02:01～03:00,0.0648,0.0548,0.0604,
江戸川 (Edogawa),2018-09-21,01:01～02:00,0.0734,0.0607,0.0660,
江戸川 (Edogawa),2018-09-21,00:01～01:00,0.0713,0.0618,0.0673,
江戸川 (Edogawa),2018-09-20,23:01～24:00,0.0697,0.0613,0.0647,
江戸川 (Edogawa),2018-09-20,22:01～23:00,0.0672,0.0567,0.0625,
江戸川 (Edogawa),2018-09-20,21:01～22:00,0.0620,0.0547,0.0579,
江戸川 (Edogawa),2018-09-20,20:01～21:00,0.0624,0.0549,0.0582,
江戸川 (Edogawa),2018-09-20,19:01～20:00,0.0582,0.0507,0.0541,
江戸川 (Edogawa),2018-09-20,18:01～19:00,0.0581,0.0510,0.0544,
江戸川 (Edogawa),2018-09-20,17:01～18:00,0.0654,0.0553,0.0609,
江戸川 (Edogawa),2018-09-20,16:01～17:00,0.0692,0.0585,0.0633,
江戸川 (Edogawa),2018-09-20,15:01～16:00,0.0653,0.0589,0.0620,
江戸川 (Edogawa),2018-09-20,14:01～15:00,0.0630,0.0471,0.0532,
江戸川 (Edogawa),2018-09-20,13:01～14:00,0.0527,0.0438,0.0476,
江戸川 (Edogawa),2018-09-20,12:01～13:00,0.0518,0.0448,0.0476,
江戸川 (Edogawa),2018-09-20,11:01～12:00,0.0517,0.0447,0.0478,
江戸川 (Edogawa),2018-09-20,10:01～11:00,0.0507,0.0445,0.0474,
江戸川 (Edogawa),2018-09-20,09:01～10:00,0.0520,0.0447,0.0479,
江戸川 (Edogawa),2018-09-20,08:01～09:00,0.0513,0.0447,0.0477,
江戸川 (Edogawa),2018-09-20,07:01～08:00,0.0511,0.0438,0.0477,
江戸川 (Edogawa),2018-09-20,06:01～07:00,0.0506,0.0446,0.0478,
江戸川 (Edogawa),2018-09-20,05:01～06:00,0.0505,0.0447,0.0478,
江戸川 (Edogawa),2018-09-20,04:01～05:00,0.0505,0.0427,0.0472,
江戸川 (Edogawa),2018-09-20,03:01～04:00,0.0504,0.0447,0.0477,
江戸川 (Edogawa),2018-09-20,02:01～03:00,0.0510,0.0444,0.0477,
江戸川 (Edogawa),2018-09-20,01:01～02:00,0.0505,0.0440,0.0475,
江戸川 (Edogawa),2018-09-20,00:01～01:00,0.0520,0.0444,0.0476,
江戸川 (Edogawa),2018-09-19,23:01～24:00,0.0508,0.0447,0.0474,
江戸川 (Edogawa),2018-09-19,22:01～23:00,0.0511,0.0437,0.0473,
江戸川 (Edogawa),2018-09-19,21:01～22:00,0.0513,0.0440,0.0471,
江戸川 (Edogawa),2018-09-19,20:01～21:00,0.0505,0.0447,0.0473,
江戸川 (Edogawa),2018-09-19,19:01～20:00,0.0500,0.0444,0.0474,
江戸川 (Edogawa),2018-09-19,18:01～19:00,0.0505,0.0439,0.0476,
江戸川 (Edogawa),2018-09-19,17:01～18:00,0.0503,0.0449,0.0473,
江戸川 (Edogawa),2018-09-19,16:01～17:00,0.0497,0.0442,0.0473,
江戸川 (Edogawa),2018-09-19,15:01～16:00,0.0509,0.0446,0.0475,
江戸川 (Edogawa),2018-09-19,14:01～15:00,0.0501,0.0434,0.0472,
江戸川 (Edogawa),2018-09-19,13:01～14:00,0.0501,0.0446,0.0472,
江戸川 (Edogawa),2018-09-19,12:01～13:00,0.0504,0.0442,0.0475,
江戸川 (Edogawa),2018-09-19,11:01～12:00,0.0497,0.0442,0.0473,
江戸川 (Edogawa),2018-09-19,10:01～11:00,0.0495,0.0434,0.0471,
江戸川 (Edogawa),2018-09-19,09:01～10:00,0.0517,0.0434,0.0470,
江戸川 (Edogawa),2018-09-19,08:01～09:00,0.0504,0.0439,0.0472,
江戸川 (Edogawa),2018-09-19,07:01～08:00,0.0509,0.0441,0.0469,
江戸川 (Edogawa),2018-09-19,06:01～07:00,0.0499,0.0440,0.0468,
江戸川 (Edogawa),2018-09-19,05:01～06:00,0.0496,0.0436,0.0466,
江戸川 (Edogawa),2018-09-19,04:01～05:00,0.0491,0.0439,0.0468,
江戸川 (Edogawa),2018-09-19,03:01～04:00,0.0510,0.0450,0.0474,
江戸川 (Edogawa),2018-09-19,02:01～03:00,0.0515,0.0450,0.0485,
江戸川 (Edogawa),2018-09-19,01:01～02:00,0.0597,0.0487,0.0534,
江戸川 (Edogawa),2018-09-19,00:01～01:00,0.0654,0.0563,0.0606,
江戸川 (Edogawa),2018-09-18,23:01～24:00,0.0611,0.0455,0.0516,
江戸川 (Edogawa),2018-09-18,22:01～23:00,0.0519,0.0441,0.0480,
江戸川 (Edogawa),2018-09-18,21:01～22:00,0.0555,0.0483,0.0524,
江戸川 (Edogawa),2018-09-18,20:01～21:00,0.0648,0.0500,0.0582,
江戸川 (Edogawa),2018-09-18,19:01～20:00,0.0622,0.0494,0.0558,
江戸川 (Edogawa),2018-09-18,18:01～19:00,0.0543,0.0443,0.0482,
江戸川 (Edogawa),2018-09-18,17:01～18:00,0.0495,0.0447,0.0471,
江戸川 (Edogawa),2018-09-18,16:01～17:00,0.0496,0.0438,0.0468,
江戸川 (Edogawa),2018-09-18,15:01～16:00,0.0502,0.0431,0.0470,
江戸川 (Edogawa),2018-09-18,14:01～15:00,0.0503,0.0437,0.0466,
江戸川 (Edogawa),2018-09-18,13:01～14:00,0.0504,0.0442,0.0470,
江戸川 (Edogawa),2018-09-18,12:01～13:00,0.0497,0.0418,0.0467,
江戸川 (Edogawa),2018-09-18,11:01～12:00,0.0498,0.0427,0.0465,
江戸川 (Edogawa),2018-09-18,10:01～11:00,0.0502,0.0445,0.0469,
江戸川 (Edogawa),2018-09-18,09:01～10:00,0.0490,0.0437,0.0463,
江戸川 (Edogawa),2018-09-18,08:01～09:00,0.0495,0.0437,0.0464,
江戸川 (Edogawa),2018-09-18,07:01～08:00,0.0497,0.0438,0.0465,
江戸川 (Edogawa),2018-09-18,06:01～07:00,0.0501,0.0433,0.0465,
江戸川 (Edogawa),2018-09-18,05:01～06:00,0.0491,0.0434,0.0460,
江戸川 (Edogawa),2018-09-18,04:01～05:00,0.0503,0.0439,0.0463,
江戸川 (Edogawa),2018-09-18,03:01～04:00,0.0492,0.0427,0.0462,
江戸川 (Edogawa),2018-09-18,02:01～03:00,0.0499,0.0445,0.0469,
江戸川 (Edogawa),2018-09-18,01:01～02:00,0.0524,0.0436,0.0478,
江戸川 (Edogawa),2018-09-18,00:01～01:00,0.0508,0.0453,0.0478,
江戸川 (Edogawa),2018-09-17,23:01～24:00,0.0510,0.0437,0.0472,
江戸川 (Edogawa),2018-09-17,22:01～23:00,0.0539,0.0464,0.0501,
江戸川 (Edogawa),2018-09-17,21:01～22:00,0.0631,0.0505,0.0574,
江戸川 (Edogawa),2018-09-17,20:01～21:00,0.0690,0.0570,0.0630,
江戸川 (Edogawa),2018-09-17,19:01～20:00,0.0788,0.0621,0.0710,
江戸川 (Edogawa),2018-09-17,18:01～19:00,0.0834,0.0600,0.0749,
江戸川 (Edogawa),2018-09-17,17:01～18:00,0.0651,0.0566,0.0607,
江戸川 (Edogawa),2018-09-17,16:01～17:00,0.0664,0.0454,0.0519,
江戸川 (Edogawa),2018-09-17,15:01～16:00,0.0509,0.0450,0.0479,
江戸川 (Edogawa),2018-09-17,14:01～15:00,0.0508,0.0452,0.0476,
江戸川 (Edogawa),2018-09-17,13:01～14:00,0.0512,0.0449,0.0476,
江戸川 (Edogawa),2018-09-17,12:01～13:00,0.0507,0.0447,0.0476,
江戸川 (Edogawa),2018-09-17,11:01～12:00,0.0527,0.0453,0.0481,
江戸川 (Edogawa),2018-09-17,10:01～11:00,0.0513,0.0453,0.0483,
江戸川 (Edogawa),2018-09-17,09:01～10:00,0.0508,0.0447,0.0477,
江戸川 (Edogawa),2018-09-17,08:01～09:00,0.0508,0.0442,0.0478,
江戸川 (Edogawa),2018-09-17,07:01～08:00,0.0510,0.0450,0.0478,
江戸川 (Edogawa),2018-09-17,06:01～07:00,0.0512,0.0452,0.0478,
江戸川 (Edogawa),2018-09-17,05:01～06:00,0.0502,0.0436,0.0474,
江戸川 (Edogawa),2018-09-17,04:01～05:00,0.0509,0.0444,0.0475,
江戸川 (Edogawa),2018-09-17,03:01～04:00,0.0520,0.0445,0.0473,
江戸川 (Edogawa),2018-09-17,02:01～03:00,0.0509,0.0436,0.0473,
江戸川 (Edogawa),2018-09-17,01:01～02:00,0.0506,0.0446,0.0474,
江戸川 (Edogawa),2018-09-17,00:01～01:00,0.0513,0.0441,0.0470,
